Location: Boulder Knolls Observatory
(33.2250°N, 117.1147°W)
Time: 00:42:16
(UTC-07:00)

Tiangong 2 - Visible Passes

Search period start: 25 June 2018 00:00
Search period end: 05 July 2018 00:00
Orbit: 385 x 396 km, 42.8° (Epoch: 25 June)

Date Brightness Start Highest point End Pass type
(mag) Time Alt. Az. Time Alt. Az. Time Alt. Az.
25 Jun 1.1 04:56:10 12° WSW 04:59:02 86° NNW 05:02:15 10° ENE visible
26 Jun 1.5 04:01:11 44° SSE 04:01:31 47° SE 04:04:37 10° ENE visible
27 Jun 4.0 03:06:10 13° E 03:06:10 13° E 03:06:42 10° E visible
27 Jun 2.0 04:38:30 15° W 04:40:50 41° NNW 04:43:54 10° NE visible
28 Jun 1.2 03:43:25 71° NNE 03:43:25 71° NNE 03:46:24 10° ENE visible
29 Jun 4.1 02:48:18 14° ENE 02:48:18 14° ENE 02:48:47 10° ENE visible
29 Jun 3.0 04:20:37 14° WNW 04:22:41 25° NNW 04:25:26 10° NE visible
30 Jun 2.6 03:25:28 35° N 03:25:28 35° N 03:28:00 10° NE visible
30 Jun 3.8 05:00:24 10° NW 05:02:26 16° N 05:04:29 10° NNE visible
01 Jul 4.5 02:30:18 12° NE 02:30:18 12° NE 02:30:31 10° NE visible
01 Jul 3.6 04:02:37 12° NW 04:04:36 18° NNW 04:06:56 10° NE visible
02 Jul 3.5 03:07:26 22° N 03:07:26 22° N 03:09:30 10° NE visible
02 Jul 4.0 04:42:33 10° NW 04:44:26 15° N 04:46:19 10° NE visible
03 Jul 4.0 03:44:35 10° NW 03:46:34 15° N 03:48:34 10° NNE visible
04 Jul 4.0 02:49:26 16° N 02:49:26 16° N 02:50:58 10° NE visible
04 Jul 4.0 04:24:21 10° NNW 04:26:24 16° N 04:28:27 10° NE visible
